Retour au catalogue

FREGAT DEB

LostUNKNOWN
NORAD 46108·DEBRIS·🇷🇺 Russia

Lancé Jul 18, 2011 depuis Baikonur Cosmodrome

Loading…

Prochains Passages (prochaines 24 heures)

TLE

PériméSource: Space-Track

Époque: Oct 29, 2022, 21:26 UTC

1 46108U 11037JT  22302.89327025  .05783922  00000-0  71923+0 0  9993
2 46108  51.6994 181.4114 1689997 106.3312 272.9419 11.80220431 89878

Suivez FREGAT DEB en temps réel avec AllMySat

Download on the App Store